Manitowoc, WI

4:34 PM CDT on March 29, 2017 (GMT -0500)
Manitowoc County

Weather History for KMTW - April, 2014

Change the Weather History Date:

Monday, April 14, 2014

  Actual Average Record
Temperature  
Mean Temperature 34 °F -  
Max Temperature 39 °F 50 °F 78 °F (2006)
Min Temperature 28 °F 34 °F 21 °F (1950)
Degree Days  
Heating Degree Days 32    
Moisture  
Dew Point 28 °F    
Average Humidity 84    
Maximum Humidity 96    
Minimum Humidity 69    
Precipitation  
Precipitation 0.38 in - - ()
Sea Level Pressure  
Sea Level Pressure 29.77 in    
Wind  
Wind Speed 19 mph (North)    
Max Wind Speed 32 mph    
Max Gust Speed 45 mph    
Visibility 6 miles    
Events Fog , Rain , Snow    
Averages and records for this station are not official NWS values.
T = Trace of Precipitation, MM = Missing Value Source: NWS Daily Summary

Daily Weather History Graph

Daily Weather History Graph

Search for Another Location

Airport or City:

Trip Planner

Search our weather history database for the weather conditions in past years. The results will help you decide how hot, cold, wet, or windy it might be!

Date:

Astronomy

Apr. 14, 2014 Rise Set
Actual Time 6:08 AM CDT 7:33 PM CDT
Civil Twilight 5:38 AM CDT 8:03 PM CDT
Nautical Twilight 5:02 AM CDT 8:40 PM CDT
Astronomical Twilight 4:24 AM CDT 9:19 PM CDT
Moon 7:11 PM CDT (4/14) 5:42 AM CDT (4/14)
Length of Visible Light 14h 24m
Length of Day
13h 24m
Full, 100% of the Moon is Illuminated
Apr 14
Full
Apr 15
Full
Apr 22
Last Quarter
Apr 29
New
May 6
First Quarter

Hourly Weather History & Observations

Time (CDT) Temp. Windchill Dew Point Humidity Pressure Visibility Wind Dir Wind Speed Gust Speed Precip Events Conditions
12:56 AM 39.0 °F 31.8 °F 37.0 °F 93% 29.61 in 5.0 mi NNE 11.5 mph 20.7 mph 0.08 in Rain Rain
1:56 AM 37.9 °F 28.9 °F 36.0 °F 93% 29.59 in 9.0 mi North 16.1 mph 24.2 mph 0.07 in Rain Light Rain
2:56 AM 37.0 °F 27.4 °F 35.1 °F 93% 29.53 in 9.0 mi NNE 17.3 mph 27.6 mph 0.04 in Rain Light Rain
3:56 AM 37.0 °F 27.0 °F 35.1 °F 93% 29.55 in 5.0 mi North 18.4 mph 26.5 mph 0.03 in Rain Light Rain
4:53 AM 35.6 °F 24.0 °F 33.8 °F 93% 29.47 in 2.5 mi North 23.0 mph 33.4 mph 0.06 in   Overcast
4:56 AM 35.1 °F 23.0 °F 34.0 °F 96% 29.55 in 3.0 mi North 24.2 mph 33.4 mph 0.06 in   Overcast
5:56 AM 33.1 °F 20.6 °F 32.0 °F 96% 29.60 in 2.0 mi NNW 23.0 mph 36.8 mph 0.04 in   Overcast
6:02 AM 33.8 °F 19.6 °F 32.0 °F 93% 29.54 in 1.8 mi North 32.2 mph 42.6 mph 0.01 in   Overcast
6:18 AM 33.8 °F 21.6 °F 32.0 °F 93% 29.56 in 1.2 mi NNW 23.0 mph 31.1 mph 0.02 in   Overcast
6:28 AM 33.8 °F 20.5 °F 30.2 °F 87% 29.55 in 0.8 mi NNW 27.6 mph 44.9 mph 0.02 in Snow Light Snow
6:51 AM 33.8 °F 20.5 °F 30.2 °F 87% 29.59 in 0.5 mi NNW 27.6 mph 40.3 mph 0.03 in Fog , Snow Snow
6:56 AM 33.1 °F 19.8 °F 30.9 °F 92% 29.67 in 0.8 mi North 26.5 mph 36.8 mph 0.03 in Snow Light Snow
7:39 AM 32.0 °F 19.5 °F 30.2 °F 93% 29.64 in 1.0 mi North 21.9 mph 34.5 mph 0.02 in Snow Light Snow
7:54 AM 32.0 °F 18.9 °F 28.4 °F 87% 29.64 in 1.2 mi North 24.2 mph 36.8 mph 0.02 in Snow Light Snow
7:56 AM 32.0 °F 19.8 °F 28.9 °F 88% 29.72 in 1.2 mi North 20.7 mph 36.8 mph 0.02 in Snow Light Snow
8:17 AM 32.0 °F 19.8 °F 30.2 °F 93% 29.66 in 1.8 mi NNW 20.7 mph 31.1 mph 0.00 in Snow Light Snow
8:30 AM 32.0 °F 18.6 °F 28.4 °F 87% 29.68 in 2.0 mi NNW 25.3 mph 33.4 mph 0.00 in Snow Light Snow
8:44 AM 33.8 °F 21.3 °F 28.4 °F 81% 29.69 in 9.0 mi NNW 24.2 mph 32.2 mph 0.01 in   Overcast
8:56 AM 33.1 °F 20.3 °F 28.9 °F 85% 29.78 in 10.0 mi NNW 24.2 mph 32.2 mph 0.01 in Rain Light Rain
9:41 AM 32.0 °F 19.2 °F 28.4 °F 87% 29.74 in 10.0 mi NNW 23.0 mph 35.7 mph 0.00 in   Overcast
9:56 AM 33.1 °F 20.3 °F 28.0 °F 82% 29.81 in 10.0 mi NNW 24.2 mph 33.4 mph 0.00 in   Overcast
10:56 AM 33.1 °F 21.9 °F 28.0 °F 82% 29.83 in 10.0 mi NNW 18.4 mph 32.2 mph 0.00 in Rain Light Rain
11:56 AM 32.0 °F 20.1 °F 27.0 °F 82% 29.90 in 10.0 mi NNW 19.6 mph 31.1 mph 0.00 in   Overcast
12:56 PM 32.0 °F 22.1 °F 27.0 °F 82% 29.92 in 10.0 mi NNW 13.8 mph - 0.00 in   Overcast
1:56 PM 33.1 °F 22.6 °F 26.1 °F 75% 29.94 in 10.0 mi North 16.1 mph 20.7 mph 0.00 in   Overcast
2:56 PM 32.0 °F 22.1 °F 26.1 °F 79% 29.97 in 10.0 mi NNW 13.8 mph 19.6 mph N/A   Overcast
3:56 PM 33.1 °F 22.6 °F 25.0 °F 72% 29.96 in 10.0 mi North 16.1 mph 21.9 mph 0.00 in Rain Light Rain
4:41 PM 33.8 °F 22.8 °F 24.8 °F 70% 29.89 in 10.0 mi North 18.4 mph 23.0 mph 0.00 in   Overcast
4:56 PM 33.1 °F 23.4 °F 24.1 °F 70% 29.97 in 10.0 mi North 13.8 mph - 0.00 in   Overcast
5:10 PM 32.0 °F 22.1 °F 24.8 °F 75% 29.90 in 10.0 mi North 13.8 mph 25.3 mph N/A   Overcast
5:56 PM 30.9 °F 21.2 °F 23.0 °F 72% 29.99 in 10.0 mi North 12.7 mph - N/A   Overcast
6:39 PM 30.2 °F 19.8 °F 23.0 °F 75% 29.94 in 10.0 mi North 13.8 mph 20.7 mph N/A   Overcast
6:56 PM 30.0 °F 21.7 °F 23.0 °F 75% 30.02 in 9.0 mi North 9.2 mph - 0.00 in Snow Light Snow
7:56 PM 28.9 °F 16.9 °F 19.9 °F 69% 30.04 in 9.0 mi North 17.3 mph 23.0 mph 0.00 in Snow Light Snow
8:56 PM 28.0 °F 18.1 °F 21.0 °F 75% 30.07 in 9.0 mi North 11.5 mph 21.9 mph 0.00 in Snow Light Snow
9:56 PM 28.0 °F 16.1 °F 19.9 °F 72% 30.08 in 9.0 mi North 16.1 mph 20.7 mph 0.00 in Snow Light Snow